Location: Grust
(42.8833°N, 0.0333°W)
Time: 19:51:53
(UTC+00:00)

SKYMED 2 - Pass Details

Date: 25 October 2020
Orbit: 621 x 623 km, 97.9° (Epoch: 23 November)

Event Time Altitude Azimuth Distance (km) Brightness Sun altitude
Rises 18:14:43 0° 11° (N) 2,912 6.9 -14.0°
Reaches altitude 10° 18:16:55 10° 10° (N) 2,001 6.0 -14.4°
Maximum altitude 18:21:16 78° 285° (WNW) 640 3.7 -15.2°
Drops below altitude 10° 18:25:35 10° 199° (SSW) 1,984 6.4 -16.0°
Sets 18:27:45 0° 198° (SSW) 2,886 7.3 -16.4°
